Weather History for Flagstaff, AZ

Change the Weather History Date:

Monday, January 13, 2014

  Actual Average Record
Temperature  
Mean Temperature 33 °F 30 °F  
Max Temperature 52 °F 42 °F 59 °F (1996)
Min Temperature 14 °F 17 °F -7 °F (2013)
Degree Days  
Heating Degree Days 32 35  
Month to date heating degree days 397 461  
Since 1 July heating degree days 3310 3289  
Cooling Degree Days 0 0  
Month to date cooling degree days 0 0  
Year to date cooling degree days 0 0  
Moisture  
Dew Point 11 °F    
Average Humidity 46    
Maximum Humidity 73    
Minimum Humidity 19    
Precipitation  
Precipitation 0.00 in 0.06 in 1.12 in (1997)
Month to date precipitation 0.00 0.92  
Year to date precipitation 0.00 0.92  
Snow  
Snow 0.00 in 0.70 in 16.40 in (1997)
Month to date snowfall 0.0 9.3  
Since 1 July snowfall 29.9 38.4  
Snow Depth 0.00 in    
Sea Level Pressure  
Sea Level Pressure 30.36 in    
Wind  
Wind Speed 2 mph (NNE)    
Max Wind Speed 13 mph    
Max Gust Speed 16 mph    
Visibility 10 miles    
Events      
T = Trace of Precipitation, MM = Missing Value Source: NWS Daily Summary

Daily Weather History Graph

Daily Weather History Graph

Search for Another Location

Airport:

Trip Planner

Search our weather history database for the weather conditions in past years. The results will help you decide how hot, cold, wet, or windy it might be!

Date:

Astronomy

Jan. 13, 2014 Rise Set
Actual Time 7:34 AM MST 5:36 PM MST
Civil Twilight 7:07 AM MST 6:03 PM MST
Nautical Twilight 6:36 AM MST 6:35 PM MST
Astronomical Twilight 6:05 AM MST 7:05 PM MST
Moon 3:53 PM MST (1/13) 5:27 AM MST (1/13)
Length of Visible Light 10h 56m
Length of Day
10h 01m
Waxing Gibbous, 95% of the Moon is Illuminated
Jan 13
Waxing Gibbous
Jan 15
Full
Jan 23
Last Quarter
Jan 30
New
Feb 6
First Quarter

Hourly Weather History & Observations

Time (MST) Temp. Windchill Dew Point Humidity Pressure Visibility Wind Dir Wind Speed Gust Speed Precip Events Conditions
12:57 AM 21.0 °F - 10.0 °F 63% 30.26 in 10.0 mi Calm Calm - N/A   Clear
1:57 AM 21.0 °F - 9.0 °F 60% 30.28 in 10.0 mi Calm Calm - N/A   Clear
2:57 AM 18.0 °F 9.8 °F 9.0 °F 68% 30.30 in 10.0 mi WSW 5.8 mph - N/A   Clear
3:57 AM 17.1 °F - 9.0 °F 71% 30.31 in 10.0 mi Calm Calm - N/A   Clear
4:57 AM 16.0 °F - 7.0 °F 68% 30.35 in 10.0 mi Calm Calm - N/A   Clear
5:57 AM 16.0 °F - 8.1 °F 71% 30.38 in 10.0 mi Calm Calm - N/A   Clear
6:57 AM 15.1 °F - 9.0 °F 77% 30.43 in 10.0 mi Calm Calm - N/A   Clear
7:57 AM 15.1 °F - 8.1 °F 74% 30.43 in 10.0 mi Calm Calm - N/A   Clear
8:57 AM 25.0 °F - 12.9 °F 60% 30.41 in 10.0 mi Calm Calm - N/A   Clear
9:57 AM 35.1 °F 30.1 °F 9.0 °F 34% 30.39 in 10.0 mi NE 5.8 mph - N/A   Clear
10:57 AM 39.9 °F 37.8 °F 8.1 °F 27% 30.40 in 10.0 mi NNE 3.5 mph - N/A   Clear
11:57 AM 45.0 °F 41.8 °F 10.0 °F 24% 30.35 in 10.0 mi NE 5.8 mph - N/A   Clear
12:57 PM 48.0 °F - 10.0 °F 22% 30.31 in 10.0 mi ENE 5.8 mph - N/A   Clear
1:57 PM 51.1 °F - 10.0 °F 19% 30.28 in 10.0 mi Variable 3.5 mph - N/A   Clear
2:57 PM 51.1 °F - 12.0 °F 21% 30.29 in 10.0 mi West 8.1 mph - N/A   Clear
3:57 PM 50.0 °F - 12.9 °F 23% 30.32 in 10.0 mi Variable 4.6 mph - N/A   Clear
4:57 PM 46.9 °F - 12.9 °F 25% 30.33 in 10.0 mi Variable 3.5 mph - N/A   Clear
5:57 PM 37.9 °F 34.4 °F 12.9 °F 36% 30.39 in 10.0 mi WNW 4.6 mph - N/A   Clear
6:57 PM 30.0 °F - 14.0 °F 51% 30.43 in 10.0 mi Calm Calm - N/A   Clear
7:57 PM 26.1 °F - 15.1 °F 63% 30.46 in 10.0 mi Calm Calm - N/A   Clear
8:57 PM 25.0 °F - 14.0 °F 63% 30.44 in 10.0 mi Calm Calm - N/A   Clear
9:57 PM 23.0 °F 18.4 °F 14.0 °F 68% 30.41 in 10.0 mi ENE 3.5 mph - N/A   Clear
10:57 PM 21.9 °F - 14.0 °F 72% 30.39 in 10.0 mi Calm Calm - N/A   Clear
11:57 PM 21.0 °F - 12.9 °F 71% 30.36 in 10.0 mi Calm Calm - N/A   Clear